OPS 4682 DEB, 38428

Orbit data source: Space-Track

OPS 4682 DEB, 38428 is space debris in LEO originally from a launch on Sat, 03 Apr 1965 UTC launched from the Air Force Western Test Range (AFWTR). Debris objects in space refer to the collection of defunct objects orbiting the Earth. Examples of debris include non-operational satellites, rocket bodies, and fragments generated from explosions, collisions, or faulty payload assembly.

Loading next visibility...
Identifier
38428, 1965-027EH
Orbit
LEO
Country
Flag of USUS
Related business
Manufacturer
Unknown
Mission
Spacecraft
Bus & Motor
Unknown
Mass
Unknown
Launch date (UTC)
1965-04-03 (61 years ago)
Launch vehicle
Unknown
Launch site
Air Force Western Test Range (AFWTR)
Object type
Payload
Rocket body
Debris
Shape & HBR
Unknown shape, 0.1 m
Radar Cross Section
Small (<0.1 m²)

Expand to show TLE details & history
Last TLE update: 1 week ago

TLE from 1 week ago
0 OPS 4682 DEB
1 38428U 65027EH  26028.92805881  .00000741  00000-0  25143-2 0  9993
2 38428  90.2444  10.1649 0046165  64.7327 295.8567 12.97449730579854
Epoch: 2026-01-28T22:16Z
TLE epoch observation values (Epoch: 2026-01-28T22:16:24.281Z)
Latitude
-0.00004°
Longitude
-92.12435°
Altitude
1,259.702 km
Speed
7.233 km/s
True Right ascension
00h 40m 39s
True Declination
0° 00' 00"
Sunlit
Object was in daylight at epoch
Visualization orbit readout
Latitude
Unknown
Longitude
Unknown
Altitude
Unknown
Speed
Unknown
Apparent Right ascension
Unknown
Apparent Declination
Unknown
Sunlit
N/A
Visualization observer readout
Local Sidereal Time
07:14:05
Azimuth
Unknown
Elevation
Unknown
Doppler factor
Unknown
Orbital elements
Apogee altitude
1,304.53 km
Perigee altitude
1,233.922 km
Semi-major axis
7,647.363 km
Eccentricity
0.00462
Inclination
90.2444°
RAAN
10.1649°
Arg. of periapsis
64.7327°
True anomaly
295.37945°
Mean anomaly
295.8567°
Eccentric anomaly
295.6182°
Mean motion
3.24546 °/min
Orbital period
110.92 mins
BSTAR
0.0025143
Loading maneuver chart data...
Computing Atmospheric mass density...
Loading historical data...
Loading historical data...
Loading historical data...
Loading historical data...
Loading historical data...
Loading historical data...
Loading historical data...

Documentation

Showing up to 5 results
|